Location: Sungai Bunut
(2.6333°N, 113.7333°E)
Time: 07:19:15
(UTC+00:00)

Vanguard 3 - Pass Details

Date: 12 December 2023
Orbit: 508 x 3239 km, 33.3° (Epoch: 21 February)

Event Time Altitude Azimuth Distance (km) Brightness Sun altitude
Rises 07:49:50 0° 229° (SW) 6,101 12.7 32.5°
Reaches altitude 10° 07:53:25 10° 227° (SW) 5,367 12.7 31.7°
Maximum altitude 08:11:09 76° 142° (SE) 3,286 10.6 27.8°
Drops below altitude 10° 08:30:26 10° 59° (ENE) 5,785 11.0 23.6°
Sets 08:34:26 0° 58° (ENE) 6,575 11.2 22.7°
